Weather in Kamennyy Yar

Russia / Astrakhan Oblast     48°26′41″N   45°33′53″E
temp.,
°C
wind,
m/s
gust,
m/s
humid.,
%
clouds,
%
prec.,
mm/h
press.,
hPa
HPBL,
m
1 august, sun
sun101:00+26sse33260 0.0 101028
04:00+25ssw12290 0.0 101114
07:00+26ese22270 0.0 101262
10:00+34se34150 0.0 10121211
13:00+37se33130 0.0 10113595
16:00+37sse22120 0.0 10103941
19:00+37e32132 0.0 10092202
22:00+31e342165 0.0 101054
2 august, mon
mon201:00+28sse33310 0.0 101028
04:00+27s22395 0.0 101112
07:00+29sw113989 0.0 101134
10:00+35s332852 0.0 10121235
13:00+38s55178 0.0 10103707
16:00+39s65169 0.0 10094097
19:00+38s66144 0.0 10092566
22:00+30w22235 0.0 101017
3 august, tue
tue301:00+28nne33376 0.0 101022
04:00+27sse333312 0.0 101022
07:00+29ssw34285 0.0 101192
10:00+37s45141 0.0 10111054
13:00+40ssw66105 0.0 10103610
16:00+40ssw66996 0.0 10094000
19:00+39ssw5790 0.0 10083634
22:00+31ssw45150 0.0 100945
4 august, wed
wed401:00+30s44165 0.0 100837
04:00+27ssw2320100 0.0 100922
07:00+27wnw362162 0.0 1009159
10:00+32nne6628100 0.1 1010686
13:00+36nnw43245 0.3 10111657
16:00+37nnw652398 0.4 10102980
19:00+33nnw7630100 0.1 10111101
22:00+29nnw612346 0.1 1012377
5 august, thu
thu501:00+26n612407 0.0 1013410
04:00+24n510486 0.0 1014313
07:00+24n5950100 0.0 1015322
10:00+29n663690 0.0 10151068
13:00+32nne65230 0.0 10152598
16:00+33nne66190 0.0 10142948
19:00+32nne651937 0.0 10142666
22:00+26ene342791 0.0 101551